Ft Pierce, FL

9:03 PM EST on January 19, 2018 (GMT -0500)
Saint Lucie County International

Weather History for KFPR - November, 2013

Change the Weather History Date:

Thursday, November 14, 2013

  Actual Average Record
Temperature  
Mean Temperature 70 °F 70 °F  
Max Temperature 75 °F 79 °F 88 °F (1970)
Min Temperature 66 °F 61 °F 35 °F (1906)
Degree Days  
Heating Degree Days 0 1  
Month to date heating degree days 2  
Since 1 July heating degree days 5  
Cooling Degree Days 6 6  
Month to date cooling degree days 95  
Year to date cooling degree days 3194  
Growing Degree Days 20 (Base 50)    
Moisture  
Dew Point 53 °F    
Average Humidity 53    
Maximum Humidity 63    
Minimum Humidity 38    
Precipitation  
Precipitation 0.00 in 0.10 in 4.24 in (1954)
Month to date precipitation 1.77  
Year to date precipitation 50.40  
Sea Level Pressure  
Sea Level Pressure 30.22 in    
Wind  
Wind Speed 13 mph (East)    
Max Wind Speed 17 mph    
Max Gust Speed 26 mph    
Visibility 10 miles    
Events      
T = Trace of Precipitation, MM = Missing Value Source: NWS Daily Summary

Daily Weather History Graph

Daily Weather History Graph

Search for Another Location

Airport or City:

Trip Planner

Search our weather history database for the weather conditions in past years. The results will help you decide how hot, cold, wet, or windy it might be!

Date:

Astronomy

Nov. 14, 2013 Rise Set
Actual Time 6:41 AM EST 5:29 PM EST
Civil Twilight 6:16 AM EST 5:54 PM EST
Nautical Twilight 5:48 AM EST 6:22 PM EST
Astronomical Twilight 5:21 AM EST 6:50 PM EST
Moon 3:38 PM EST (11/14) 3:49 AM EST (11/14)
Length of Visible Light 11h 37m
Length of Day
10h 48m
Waxing Gibbous, 91% of the Moon is Illuminated
Nov 14
Waxing Gibbous
Nov 17
Full
Nov 25
Last Quarter
Dec 2
New
Dec 9
First Quarter

Hourly Weather History & Observations

Time (EST) Temp. Dew Point Humidity Pressure Visibility Wind Dir Wind Speed Gust Speed Precip Events Conditions
12:53 AM 68.0 °F 51.1 °F 55% 30.23 in 10.0 mi ENE 16.1 mph 23.0 mph N/A   Overcast
1:53 AM 66.9 °F 48.9 °F 52% 30.22 in 10.0 mi ENE 9.2 mph 18.4 mph N/A   Mostly Cloudy
2:53 AM 68.0 °F 48.9 °F 50% 30.21 in 10.0 mi ENE 11.5 mph 21.9 mph N/A   Partly Cloudy
3:53 AM 68.0 °F 52.0 °F 56% 30.20 in 10.0 mi NE 12.7 mph 19.6 mph N/A   Overcast
4:53 AM 69.1 °F 51.1 °F 53% 30.20 in 10.0 mi ENE 16.1 mph 24.2 mph N/A   Mostly Cloudy
5:53 AM 69.1 °F 50.0 °F 51% 30.22 in 10.0 mi ENE 11.5 mph - N/A   Mostly Cloudy
6:53 AM 68.0 °F 48.9 °F 50% 30.23 in 10.0 mi East 10.4 mph - N/A   Clear
7:53 AM 70.0 °F 51.1 °F 51% 30.25 in 10.0 mi East 15.0 mph 24.2 mph N/A   Overcast
8:53 AM 73.9 °F 46.9 °F 38% 30.26 in 10.0 mi East 17.3 mph 25.3 mph N/A   Scattered Clouds
9:53 AM 72.0 °F 54.0 °F 53% 30.28 in 10.0 mi ENE 12.7 mph 21.9 mph N/A   Overcast
10:53 AM 75.0 °F 55.0 °F 50% 30.27 in 10.0 mi East 16.1 mph 25.3 mph N/A   Scattered Clouds
11:53 AM 73.9 °F 55.0 °F 52% 30.26 in 10.0 mi East 13.8 mph 19.6 mph N/A   Overcast
12:53 PM 73.9 °F 51.1 °F 45% 30.23 in 10.0 mi East 16.1 mph 26.5 mph N/A   Overcast
1:53 PM 75.9 °F 53.1 °F 45% 30.21 in 10.0 mi East 15.0 mph 19.6 mph N/A   Scattered Clouds
2:53 PM 73.9 °F 55.9 °F 53% 30.20 in 10.0 mi ENE 10.4 mph 18.4 mph N/A   Scattered Clouds
3:53 PM 73.0 °F 55.0 °F 53% 30.19 in 10.0 mi East 12.7 mph - N/A   Mostly Cloudy
4:53 PM 72.0 °F 55.0 °F 55% 30.18 in 10.0 mi East 11.5 mph - N/A   Mostly Cloudy
5:53 PM 72.0 °F 55.0 °F 55% 30.19 in 10.0 mi East 15.0 mph - N/A   Overcast
6:53 PM 71.1 °F 54.0 °F 55% 30.21 in 10.0 mi East 11.5 mph - N/A   Partly Cloudy
7:53 PM 71.1 °F 57.9 °F 63% 30.21 in 10.0 mi East 10.4 mph - 0.00 in   Mostly Cloudy
8:53 PM 72.0 °F 57.9 °F 61% 30.19 in 10.0 mi East 13.8 mph - 0.00 in   Mostly Cloudy
9:53 PM 71.1 °F 57.0 °F 61% 30.19 in 10.0 mi East 13.8 mph - N/A   Clear
10:53 PM 72.0 °F 55.9 °F 57% 30.18 in 10.0 mi East 15.0 mph - N/A   Mostly Cloudy
11:53 PM 73.0 °F 57.0 °F 57% 30.18 in 10.0 mi East 11.5 mph - N/A   Overcast